Regional Weather Roundup
Issued by NWS

Home | Current Version | Previous Version | Text Only | Print | Product List | Glossary Off
Versions: 1 2 3 4 5 6 7 8 9 10 11 12 13 14 15 16 17 18 19 20 21 22 23 24 25 26 27 28 29 30 31 32 33 34 35 36 37 38 39 40 41 42 43 44 45 46 47 48 49 50

000
ASUS43 KLOT 312100
RWRIL

ILLINOIS REGIONAL WEATHER ROUNDUP
NATIONAL WEATHER SERVICE CHICAGO/ROMEOVILLE IL
400 PM CDT FRI OCT 31 2014

NOTE: "FAIR" INDICATES FEW OR NO CLOUDS BELOW 12,000 FEET WITH NO
SIGNIFICANT WEATHER AND/OR OBSTRUCTIONS TO VISIBILITY.

* THESE STATIONS ARE NOT UNDER NWS QUALITY CONTROL. THEY ALSO MAY NOT
  REPORT WEATHER SUCH AS PRECIPITATION OR FOG.

ILZ001-002-007-009-015-016-024-312200-
NORTHWEST ILLINOIS

CITY           SKY/WX    TMP DP  RH WIND       PRES   REMARKS
MOLINE         MOSUNNY   43  18  36 N16G23    30.34R
STERLING*      PTSUNNY   43  21  42 NE18G29   30.32S
$$

ILZ003-004-008-010-011-017-018-312200-
NORTH CENTRAL ILLINOIS

CITY           SKY/WX    TMP DP  RH WIND       PRES   REMARKS
ROCKFORD       PTSUNNY   40  19  43 N22G32    30.33R
FREEPORT*      PTSUNNY   37  17  43 N16G26    30.35R WCI  28
ROCHELLE*      PTSUNNY   38  19  46 N23G32    30.29S WCI  28
$$

ILZ005-006-012>014-019>023-312200-
NORTHEAST ILLINOIS

CITY           SKY/WX    TMP DP  RH WIND       PRES   REMARKS
CHICAGO-OHARE  CLOUDY    39  21  48 N29G37    30.22R WCI  27
CHICAGO-MIDWAY FLURRIES  40  26  57 N32G44    30.21R
AURORA         PTSUNNY   41  19  41 N33G43    30.24R
LANSING*       CLOUDY    39  32  77 N24G40    30.17R WCI  28
WAUKEGAN       CLOUDY    37  21  52 N21G35    30.24R WCI  26
DUPAGE AIRPORT CLOUDY    40  20  44 N31G40    30.23R
WHEELING       CLOUDY    40  21  46 N24G39    30.25R
NORTHERLY ISL    N/A     37  34  89 N33         N/A  WCI  24
$$

LMZ740>746-312200-
SOUTHERN LAKE MICHIGAN

STATION/POSITION SKY/WX   TEMP    WIND        PRES    VSBY  WAVE
                          AIR SEA DIR/SP/G                  HT/PER
                          (F)     (DEG/KT/KT) (MB)    (MI)  (FT/S)
SOUTHERN BUOY              40 47  350/ 35/ 43 1020.6R        17/10
WAUKEGAN HARBOR            38     350/ 25/ 36   N/A
HARRISON CRIB              39     350/ 47/ 57   N/A
BURNHAM HARBOR             38     350/ 26/ 35   N/A
CALUMET HARBOR             40     340/ 30/ 43 1020.7R
MICHIGAN CITY              38     360/ 46/ 56   N/A
$$

ILZ025>027-034>036-040-047-049-050-058-095>099-312200-
WEST-CENTRAL ILLINOIS

CITY           SKY/WX    TMP DP  RH WIND       PRES   REMARKS
QUINCY         SUNNY     43  19  38 N20       30.35R
MACOMB*        SUNNY     44  19  36 N17G32    30.35S
$$

ILZ028>032-037-038-041>044-048-051>054-059>061-312200-
CENTRAL ILLINOIS

CITY           SKY/WX    TMP DP  RH WIND       PRES   REMARKS
DECATUR        PTSUNNY   41  24  51 N29G41    30.24R
PEORIA         MOSUNNY   45  19  35 N16G25    30.29R
SPRINGFIELD    MOSUNNY   45  21  38 N18G32    30.28R
TAYLORVILLE    NOT AVBL
$$

ILZ033-039-045-046-055>057-062-063-312200-
EAST-CENTRAL ILLINOIS

CITY           SKY/WX    TMP DP  RH WIND       PRES   REMARKS
CHAMPAIGN      CLOUDY    41  24  51 NW31G45   30.19R
MATTOON        CLOUDY    41  24  51 N29G44    30.18R
$$

ILZ079-100>102-312200-
SOUTHWEST ILLINOIS

CITY           SKY/WX    TMP DP  RH WIND       PRES   REMARKS
ALTON          MOSUNNY  N/A N/A N/A NW17G25   30.29R
BELLEVILLE     SUNNY     46  22  38 N9G32     30.27R
CAHOKIA*       SUNNY     47  24  40 NW26G32   30.29R
SPARTA*        MOSUNNY   44  24  44 NW18G29   30.26S
$$

ILZ064>066-069>071-074>076-080>082-084>086-088>090-092>094-312200-
SOUTH-CENTRAL ILLINOIS

CITY           SKY/WX    TMP DP  RH WIND       PRES   REMARKS
CARBONDALE     PTSUNNY   46  23  40 N23G37    30.24R
MARION         MOSUNNY   45  25  45 MISG      30.23R
MT. VERNON     PTSUNNY   45  23  42 N9        30.22S
SALEM*         FAIR      47  26  43 NW18G28   30.23R
$$

ILZ067-068-072-073-078-083-087-091-312200-
SOUTHEAST ILLINOIS

CITY           SKY/WX    TMP DP  RH WIND       PRES   REMARKS
LAWRENCEVILLE  CLOUDY    43  28  55 N32       30.15R
HARRISBURG*    MOSUNNY   45  26  46 N20G29    30.21R
ROBINSON*      CLOUDY    42  32  68 N15G33    30.17R
$$

ABBREVIATIONS USED IN REMARKS
   TC - TEMPERATURE IN CELSIUS
  WCI - WIND CHILL INDEX
   HX - HEAT INDEX
  VSB - VISIBILITY
$$




USA.gov is the U.S. government's official web portal to all federal, state and local government web resources and services.